Location: Harbor Side
(32.6101°N, 117.0814°W)
Time: 07:15:28
(UTC+00:00)

DELTA 2 R/B (1) - Pass Details

Date: 21 April 2021
Orbit: 790 x 803 km, 39.6° (Epoch: 13 May)

Event Time Altitude Azimuth Distance (km) Brightness Sun altitude
Exits shadow 12:27:53 - 295° (WNW) 3,172 6.3 -9.6°
Reaches altitude 10° 12:30:05 10° 297° (WNW) 2,352 5.6 -9.1°
Maximum altitude 12:35:37 70° 21° (NNE) 838 3.9 -8.0°
Drops below altitude 10° 12:41:10 10° 106° (ESE) 2,356 7.0 -6.9°
Sets 12:43:40 0° 108° (ESE) 3,287 7.7 -6.4°
